This is the latest recevied weather packets stored in our database for station/object SP9KB-13. If no packets are shown the sender has not sent any weather packets the latest 10 day(s).
| Time | Temp. | Humidity | Pressure | Rain* | Wind** | Luminosity | Snow |
|---|---|---|---|---|---|---|---|
| 1777469059 | 8.33° C | 35% | 1004.9 hPa | 0 mm | - | - | - |
| 1777468758 | 7.78° C | 35% | 1005.2 hPa | 0 mm | - | - | - |
| 1777468457 | 7.78° C | 36% | 1005 hPa | 0 mm | - | - | - |
| 1777468157 | 7.78° C | 37% | 1005.1 hPa | 0 mm | - | - | - |
| 1777467856 | 7.78° C | 38% | 1005.3 hPa | 0 mm | - | - | - |
| 1777467556 | 7.22° C | 37% | 1005.1 hPa | 0 mm | - | - | - |
| 1777467255 | 7.78° C | 37% | 1005.1 hPa | 0 mm | - | - | - |
| 1777466954 | 8.33° C | 39% | 1004.9 hPa | 0 mm | - | - | - |
| 1777466654 | 8.33° C | 40% | 1004.9 hPa | 0 mm | - | - | - |
| 1777466354 | 7.78° C | 42% | 1005.2 hPa | 0 mm | - | - | - |
| 1777466053 | 7.78° C | 41% | 1005.1 hPa | 0 mm | - | - | - |
| 1777465752 | 7.22° C | 41% | 1005.2 hPa | 0 mm | - | - | - |
| 1777465452 | 7.78° C | 40% | 1005.3 hPa | 0 mm | - | - | - |
| 1777465151 | 7.78° C | 38% | 1005.4 hPa | 0 mm | - | - | - |
| 1777464850 | 7.22° C | 42% | 1005.4 hPa | 0 mm | - | - | - |
| 1777464550 | 6.67° C | 42% | 1005.4 hPa | 0 mm | - | - | - |
| 1777464249 | 6.67° C | 42% | 1005.4 hPa | 0 mm | - | - | - |
| 1777463949 | 6.67° C | 43% | 1005.1 hPa | 0 mm | - | - | - |
| 1777463648 | 7.22° C | 43% | 1005.2 hPa | 0 mm | - | - | - |
| 1777463348 | 7.78° C | 38% | 1005.2 hPa | 0 mm | - | - | - |
| 1777463047 | 7.22° C | 38% | 1005.1 hPa | 0 mm | - | - | - |
| 1777462746 | 7.78° C | 40% | 1005.2 hPa | 0 mm | - | - | - |
| 1777462446 | 7.78° C | 42% | 1005.2 hPa | 0 mm | - | - | - |
| 1777462145 | 7.78° C | 42% | 1005.1 hPa | 0 mm | - | - | - |
| 1777461845 | 7.22° C | 46% | 1005.2 hPa | 0 mm | - | - | - |
* Rain latest hour (hover to see other rain measurements)
** Current wind speed in m/s (hover to see current wind gust speed)